Regional Weather Roundup
Issued by NWS

Home | Current Version | Previous Version | Graphics & Text | Print | Product List | Glossary Off
Versions: 1 2 3 4 5 6 7 8 9 10 11 12 13 14 15 16 17 18 19 20 21 22 23 24 25 26 27 28 29 30 31 32 33 34 35 36 37 38 39 40 41 42 43 44 45 46 47 48 49 50

000
ASUS43 KTOP 270459
RWRKS

WEATHER ROUNDUP FOR KANSAS
NATIONAL WEATHER SERVICE GOODLAND KS
1200 AM CDT TUE SEP 27 2016

NOTE:  "FAIR" INDICATES FEW OR NO CLOUDS BELOW 12,000 FEET WITH NO
SIGNIFICANT WEATHER AND/OR OBSTRUCTIONS TO VISIBILITY.

KSZ001>006-013>018-027>032-041>047-270600-
NORTHWEST KANSAS

CITY           SKY/WX    TMP DP  RH WIND       PRES   REMARKS
GOODLAND       CLEAR     50  40  68 W3        30.24S
HAYS           CLEAR     55  37  50 CALM      30.16S
HILL CITY      CLEAR     50  46  86 NW3       30.16F
RUSSELL        CLEAR     57  44  62 S10       30.14F
$$

KSZ061>065-074>080-084>089-270600-
SOUTHWEST KANSAS

CITY           SKY/WX    TMP DP  RH WIND       PRES   REMARKS
DODGE CITY     CLEAR     54  39  57 S7        30.19S
ELKHART          N/A     56  34  43 S8          N/A
GARDEN CITY    CLEAR     56  34  43 SW8       30.20S
GREAT BEND     CLEAR     55  39  54 SW6       30.17S
LIBERAL        CLEAR     55  36  47 SW10      30.22F
$$

KSZ066>073-081>083-090>101-270600-
SOUTHEAST KANSAS

CITY           SKY/WX    TMP DP  RH WIND       PRES   REMARKS
CHANUTE        CLEAR     55  49  80 CALM      30.15F
COFFEYVILLE    CLEAR     52  50  93 CALM      30.17S
HUTCHINSON     CLEAR     55  47  74 SW6       30.17S
MEDICINE LODGE   N/A     57  46  66 CALM      30.18F
NEWTON         CLEAR    N/A N/A N/A SW8       30.17F
PARSONS        CLEAR     49  48  97 CALM      30.17F
WICHITA INTL   CLEAR     57  48  72 CALM      30.17S
WICHITA JABRA  CLEAR     58  48  69 SW7       30.17S
WINFIELD       CLEAR     57  50  77 CALM      30.18F
$$

KSZ007>012-019>026-033>040-048>060-102>105-270600-
NORTHEAST KANSAS

CITY           SKY/WX    TMP DP  RH WIND       PRES   REMARKS
CONCORDIA      CLEAR     61  42  49 SW9       30.12F
EMPORIA        CLEAR     54  46  74 SW8       30.14F
LAWRENCE       CLEAR     50  50 100 CALM      30.12S
MANHATTAN      CLEAR     53  48  83 CALM      30.13S
OLATHE IND     CLEAR     55  48  77 S6        30.13S
OLATHE EXE     CLEAR     57  47  69 SW5       30.12F
SALINA         CLEAR     57  48  72 SW9       30.14F
TOPEKA BILLARD CLEAR     55  50  83 SW3       30.12S
TOPEKA FORBES  CLEAR     58  47  66 SW8       30.12S
$$




USA.gov is the U.S. government's official web portal to all federal, state and local government web resources and services.